• în România
  • Lista ţărilor
  • Pe 7 zile
  • Temperatura apei
  • Hartă satelitară
  • Meteo pe hartă
  • Widget-uri
  • user-avatar
    Intrare

    Meteo pe oră la Stepanakert

    Astăzi, 21 Octombrie, Duminică

    Timp Temperatura Precipitaţii Vânt Presiune Umiditate
    00:00 +15°C° 0 mm 1 m/s 693 mmHg 67%
    01:00 +15°C° 0 mm 1 m/s 693 mmHg 67%
    02:00 +15°C° 0 mm 1 m/s 693 mmHg 67%
    03:00 +15°C° 0 mm 1 m/s 693 mmHg 67%
    04:00 +14°C° 0 mm 1 m/s 693 mmHg 67%
    05:00 +14°C° 0 mm 1 m/s 693 mmHg 67%
    06:00 +14°C° 0 mm 1 m/s 693 mmHg 67%
    07:00 +16°C° 0 mm 1 m/s 693 mmHg 62%
    08:00 +18°C° 0 mm 1 m/s 694 mmHg 58%
    09:00 +20°C° 0 mm 1 m/s 694 mmHg 53%
    10:00 +21°C° 0 mm 1 m/s 694 mmHg 50%
    11:00 +21°C° 0 mm 2 m/s 694 mmHg 46%
    12:00 +23°C° 0 mm 2 m/s 694 mmHg 43%
    13:00 +23°C° 0 mm 2 m/s 694 mmHg 43%
    14:00 +23°C° 0 mm 2 m/s 694 mmHg 44%
    15:00 +23°C° 0 mm 2 m/s 694 mmHg 44%
    16:00 +21°C° 0 mm 2 m/s 694 mmHg 50%
    17:00 +20°C° 0 mm 1 m/s 693 mmHg 57%
    18:00 +19°C° 0 mm 1 m/s 693 mmHg 63%
    19:00 +18°C° 0 mm 1 m/s 693 mmHg 64%
    20:00 +18°C° 0 mm 1 m/s 694 mmHg 64%
    21:00 +16°C° 0 mm 1 m/s 694 mmHg 65%
    22:00 +16°C° 0 mm 1 m/s 694 mmHg 65%
    23:00 +16°C° 0 mm 1 m/s 693 mmHg 65%

    Mâine, 22 Octombrie, Luni

    Timp Temperatura Precipitaţii Vânt Presiune Umiditate
    00:00 +15°C° 0 mm 1 m/s 693 mmHg 66%
    01:00 +15°C° 0 mm 1 m/s 693 mmHg 66%
    02:00 +15°C° 0 mm 1 m/s 693 mmHg 66%
    03:00 +15°C° 0 mm 1 m/s 693 mmHg 66%
    04:00 +14°C° 0 mm 1 m/s 693 mmHg 66%
    05:00 +14°C° 0 mm 1 m/s 694 mmHg 66%
    06:00 +14°C° 0 mm 1 m/s 694 mmHg 67%
    07:00 +16°C° 0 mm 1 m/s 694 mmHg 63%
    08:00 +18°C° 0 mm 1 m/s 694 mmHg 59%
    09:00 +20°C° 0 mm 1 m/s 695 mmHg 55%
    10:00 +20°C° 0 mm 2 m/s 695 mmHg 53%
    11:00 +21°C° 0 mm 2 m/s 695 mmHg 50%
    12:00 +23°C° 0 mm 2 m/s 695 mmHg 48%
    13:00 +23°C° 0 mm 2 m/s 694 mmHg 49%
    14:00 +23°C° 0 mm 2 m/s 694 mmHg 50%
    15:00 +23°C° 0 mm 2 m/s 694 mmHg 51%
    16:00 +20°C° 0 mm 2 m/s 694 mmHg 57%
    17:00 +20°C° 0 mm 1 m/s 694 mmHg 63%
    18:00 +18°C° 0 mm 1 m/s 694 mmHg 70%
    19:00 +18°C° 0 mm 1 m/s 694 mmHg 71%
    20:00 +16°C° 0 mm 1 m/s 694 mmHg 71%
    21:00 +16°C° 0 mm 1 m/s 694 mmHg 72%
    22:00 +16°C° 0 mm 1 m/s 694 mmHg 73%
    23:00 +16°C° 0 mm 1 m/s 694 mmHg 73%

    Poimâine, 23 Octombrie, Marţi

    Timp Temperatura Precipitaţii Vânt Presiune Umiditate
    00:00 +15°C° 0 mm 1 m/s 694 mmHg 73%
    01:00 +15°C° 0 mm 1 m/s 694 mmHg 73%
    02:00 +15°C° 0 mm 1 m/s 694 mmHg 73%
    03:00 +15°C° 0 mm 1 m/s 694 mmHg 72%
    04:00 +14°C° 0 mm 1 m/s 694 mmHg 72%
    05:00 +14°C° 0 mm 1 m/s 694 mmHg 73%
    06:00 +14°C° 0 mm 1 m/s 694 mmHg 73%
    07:00 +15°C° 0 mm 1 m/s 694 mmHg 66%
    08:00 +18°C° 0 mm 1 m/s 695 mmHg 60%
    09:00 +20°C° 0 mm 1 m/s 695 mmHg 53%
    10:00 +20°C° 0 mm 2 m/s 695 mmHg 50%
    11:00 +21°C° 0 mm 2 m/s 694 mmHg 46%
    12:00 +23°C° 0 mm 2 m/s 694 mmHg 42%
    13:00 +23°C° 0 mm 2 m/s 694 mmHg 42%
    14:00 +23°C° 0 mm 2 m/s 693 mmHg 41%
    15:00 +23°C° 0 mm 2 m/s 693 mmHg 41%
    16:00 +20°C° 0 mm 2 m/s 693 mmHg 46%
    17:00 +19°C° 0 mm 1 m/s 692 mmHg 52%
    18:00 +16°C° 0 mm 0 m/s 692 mmHg 58%
    19:00 +18°C° 0 mm 1 m/s 692 mmHg 58%
    20:00 +16°C° 0 mm 1 m/s 692 mmHg 58%
    21:00 +16°C° 0 mm 1 m/s 693 mmHg 59%
    22:00 +16°C° 0 mm 1 m/s 692 mmHg 59%
    23:00 +16°C° 0 mm 1 m/s 692 mmHg 59%

    24 Octombrie, Miercuri

    Timp Temperatura Precipitaţii Vânt Presiune Umiditate
    00:00 +15°C° 0 mm 1 m/s 692 mmHg 59%
    01:00 +15°C° 0 mm 1 m/s 692 mmHg 59%
    02:00 +15°C° 0 mm 2 m/s 691 mmHg 58%
    03:00 +15°C° 0 mm 2 m/s 691 mmHg 58%
    04:00 +15°C° 0 mm 2 m/s 691 mmHg 58%
    05:00 +14°C° 0 mm 2 m/s 691 mmHg 58%
    06:00 +14°C° 0 mm 1 m/s 691 mmHg 57%
    07:00 +16°C° 0 mm 1 m/s 691 mmHg 52%
    08:00 +18°C° 0 mm 2 m/s 691 mmHg 47%
    09:00 +20°C° 0 mm 2 m/s 692 mmHg 41%
    10:00 +21°C° 0 mm 2 m/s 691 mmHg 38%
    11:00 +23°C° 0 mm 2 m/s 691 mmHg 35%
    12:00 +24°C° 0 mm 3 m/s 691 mmHg 32%
    13:00 +24°C° 0 mm 3 m/s 690 mmHg 33%
    14:00 +24°C° 0 mm 2 m/s 689 mmHg 34%
    15:00 +24°C° 0 mm 2 m/s 689 mmHg 34%
    16:00 +21°C° 0 mm 2 m/s 689 mmHg 39%
    17:00 +21°C° 0 mm 1 m/s 688 mmHg 43%
    18:00 +19°C° 0 mm 1 m/s 688 mmHg 48%
    19:00 +19°C° 0 mm 1 m/s 688 mmHg 48%
    20:00 +19°C° 0 mm 1 m/s 688 mmHg 49%
    21:00 +18°C° 0 mm 1 m/s 688 mmHg 49%
    22:00 +18°C° 0 mm 1 m/s 687 mmHg 50%
    23:00 +18°C° 0 mm 1 m/s 687 mmHg 51%

    25 Octombrie, Joi

    Timp Temperatura Precipitaţii Vânt Presiune Umiditate
    00:00 +18°C° 0 mm 1 m/s 687 mmHg 52%
    01:00 +16°C° 0 mm 2 m/s 686 mmHg 53%
    02:00 +16°C° 0 mm 2 m/s 686 mmHg 55%
    03:00 +15°C° 0 mm 2 m/s 686 mmHg 56%
    04:00 +15°C° 0 mm 2 m/s 686 mmHg 56%
    05:00 +15°C° 0 mm 2 m/s 686 mmHg 57%
    06:00 +15°C° 0 mm 2 m/s 686 mmHg 57%
    07:00 +17°C° 0 mm 2 m/s 686 mmHg 51%
    08:00 +19°C° 0 mm 2 m/s 686 mmHg 45%
    09:00 +21°C° 0 mm 3 m/s 686 mmHg 39%
    10:00 +24°C° 0 mm 3 m/s 686 mmHg 35%
    11:00 +25°C° 0 mm 4 m/s 686 mmHg 32%
    12:00 +26°C° 0 mm 4 m/s 686 mmHg 29%
    13:00 +26°C° 0 mm 4 m/s 685 mmHg 30%
    14:00 +26°C° 0 mm 4 m/s 685 mmHg 31%
    15:00 +26°C° 0 mm 4 m/s 684 mmHg 32%
    16:00 +24°C° 0.2 mm 3 m/s 684 mmHg 38%
    17:00 +22°C° 0.2 mm 3 m/s 684 mmHg 43%
    18:00 +20°C° 0.2 mm 2 m/s 684 mmHg 49%
    19:00 +19°C° 0 mm 2 m/s 684 mmHg 51%
    20:00 +20°C° 0 mm 1 m/s 684 mmHg 53%
    21:00 +19°C° 0 mm 1 m/s 684 mmHg 56%
    22:00 +19°C° 0 mm 1 m/s 684 mmHg 56%
    23:00 +19°C° 0 mm 1 m/s 684 mmHg 56%

    26 Octombrie, Vineri

    Timp Temperatura Precipitaţii Vânt Presiune Umiditate
    00:00 +18°C° 0 mm 2 m/s 684 mmHg 55%
    01:00 +18°C° 0 mm 1 m/s 683 mmHg 56%
    02:00 +18°C° 0 mm 1 m/s 683 mmHg 57%
    03:00 +16°C° 0 mm 1 m/s 683 mmHg 58%
    04:00 +16°C° 0 mm 1 m/s 683 mmHg 59%
    05:00 +16°C° 0 mm 2 m/s 684 mmHg 59%
    06:00 +15°C° 0 mm 2 m/s 684 mmHg 59%
    07:00 +17°C° 0 mm 2 m/s 684 mmHg 53%
    08:00 +19°C° 0 mm 2 m/s 685 mmHg 47%
    09:00 +21°C° 0 mm 2 m/s 685 mmHg 41%
    10:00 +22°C° 0 mm 3 m/s 685 mmHg 38%
    11:00 +25°C° 0 mm 3 m/s 685 mmHg 34%
    12:00 +26°C° 0 mm 4 m/s 685 mmHg 31%
    13:00 +25°C° 0 mm 4 m/s 685 mmHg 33%
    14:00 +25°C° 0 mm 5 m/s 685 mmHg 36%
    15:00 +23°C° 0 mm 5 m/s 685 mmHg 39%
    16:00 +21°C° 0.3 mm 5 m/s 686 mmHg 50%
    17:00 +19°C° 0.3 mm 5 m/s 686 mmHg 62%
    18:00 +15°C° 0.3 mm 4 m/s 686 mmHg 73%
    19:00 +15°C° 0.2 mm 4 m/s 687 mmHg 76%
    20:00 +14°C° 0.2 mm 4 m/s 687 mmHg 78%
    21:00 +13°C° 0.2 mm 3 m/s 688 mmHg 80%
    22:00 +13°C° 0.2 mm 3 m/s 688 mmHg 81%
    23:00 +12°C° 0.2 mm 3 m/s 689 mmHg 82%
    Arată mai mult